Flag for Slovenia Weather past 2 weeks in Celje, Slovenia

Now
55 °F

Partly sunny.


Feels Like: 53 °F
Forecast: 40 / 50 °F
Wind: 8 mph from Northwest

Location: Celje

Current Time: Oct 22, 2014 at 4:42:05 PM

Latest Report: Oct 22, 2014 at 3:00 PM


Visibility: 34 mi

Pressure: 29.75 "Hg

Humidity: 44%

Dew point: 34 °F

Location of CeljeLocation

Historic Weather in Celje — Graph

°F

Celje temperature yesterday

Maximum temperature yesterday: 72 °F (at 3:00 PM)
Minimum temperature yesterday: 52 °F (at 5:00 AM)
Average temperature yesterday: 60 °F

Past Weeks' High & Low Weather Summary

 TemperatureHumidityPressure
High78 °F (Oct 11, 4:00 PM)100% (Oct 19, 8:00 AM)30.37 "Hg (Oct 19, 8:00 AM)
Low43 °F (Oct 22, 7:00 AM)44% (Oct 22, 3:00 PM)29.55 "Hg (Oct 22, 2:00 AM)
Average63 °F78%29.98 "Hg
* Reported Oct 7 3:00 PM — Oct 22 3:00 PM, Celje, Weather by CustomWeather, © 2014

Note: Actual official high and low records may vary slightly from our data, if they occured in-between our weather recording intervals... More about our weather records

Advertising

Celje weather history for previous 24 hours

 ConditionsComfort  
Time TempWeatherWind HumidityBarometerVisibility
3:00 PM
Oct 22
55 °FPartly sunny.8 mph44%29.75 "Hg34 mi
2:00 PM54 °FPartly sunny.2 mph56%29.74 "Hg31 mi
1:00 PM51 °FCool.2 mph60%29.76 "HgN/A
12:00 PM49 °FCool.1 mph73%29.80 "HgN/A
11:00 AM46 °FCool.2 mph88%29.84 "HgN/A
10:00 AM43 °FQuite cool.3 mph90%29.83 "HgN/A
9:00 AM43 °FQuite cool.2 mph95%29.79 "HgN/A
8:00 AM43 °FLight rain. Low clouds.2 mph90%29.80 "Hg9 mi
7:00 AM43 °FRain. Overcast.1 mph86%29.82 "Hg5 mi
6:00 AM43 °FThundershowers. Overcast.6 mph83%29.79 "Hg3 mi
5:00 AM45 °FThundershowers. Overcast.7 mph84%29.74 "Hg2 mi
4:00 AM45 °FCool.6 mph88%29.75 "HgN/A
3:00 AM49 °FCool.9 mph82%29.72 "HgN/A
2:00 AM59 °FCool.1 mph98%29.55 "HgN/A
1:00 AM60 °FCool.2 mph94%29.56 "HgN/A
12:00 AM60 °FCool.2 mph95%29.59 "HgN/A
11:00 PM
Oct 21
59 °FCool.2 mph95%29.64 "HgN/A
10:00 PM59 °FCool.2 mph96%29.68 "HgN/A
9:00 PM59 °FCool.1 mph92%29.72 "HgN/A
8:00 PM60 °FOvercast.1 mph92%29.74 "Hg12 mi
7:00 PM60 °FCool.1 mph90%29.76 "HgN/A
6:00 PM65 °FMild.1 mph82%29.77 "HgN/A
5:00 PM69 °FMild.1 mph69%29.77 "HgN/A
4:00 PM71 °FMild.1 mph64%29.78 "HgN/A
Weather by CustomWeather, © 2014

See weather overviewHow to use our weather pages